Los Osos, CA (93402)

10:48 PM PDT on August 20, 2017 (GMT -0700)
Del Mar | | Change Station

Elev 178 ft 35.31 °N, 120.83 °W | Updated 18 seconds ago

Partly Cloudy
Partly Cloudy
64.1 °F
Feels Like 64.1 °F
N
0.0
Wind Variable Wind from West

Today
High -- | Low -- °F
--% Chance of Precip.
Yesterday
High -- | Low -- °F
Precip. -- in
Pressure 29.93 in
Visibility 10.0 miles
Clouds Overcast 1900 ft
Dew Point 59 °F
Humidity 85%
Rainfall 0.00 in
Snow Depth Not available.
6:26 AM 7:45 PM
Waning Crescent, 0% visible
METAR KSBP 210456Z AUTO 31004KT 10SM OVC019 18/15 A2993 RMK AO2 SLP134 T01830150 $
Pressure 29.93 in
Visibility 10.0 miles
Clouds Overcast 1900 ft
Dew Point 59 °F
Humidity 85%
Rainfall 0.00 in
Snow Depth Not available.
6:26 AM 7:45 PM
Waning Crescent, 0% visible
METAR KSBP 210456Z AUTO 31004KT 10SM OVC019 18/15 A2993 RMK AO2 SLP134 T01830150 $

Get Severe Weather Alerts

Thanks for signing up!

Be on the lookout for a verification email in your inbox.

You'll start receiving the daily forecast at 6 AM.

×

10-Day Weather Forecast

Almanac

Astronomy

Aug. 20, 2017 Rise Set
Actual Time
Civil Twilight
Nautical Twilight
Astronomical Twilight
Moon
Length of Visible Light
Length of Day
Tomorrow will be .
, % of the Moon is Illuminated

Today's Extremes

State Highs State Lows

Community

WunderPhotos

Category 6

Welcome to Category 6. This is the collective home for Weather Underground's featured writeups by Dr. Jeff Masters (right), Bob Henson (left), Chris Burt, and other regular contributors.

Nearby

Air Quality

  Air Quality AQ Index Pollutant
Not available.

Snow Depth

Station Depth Elevation

Earthquake Activity

City Distance Mag. Time & Date
Minimum magnitude displayed is 2.5.

Coastal Water Temperatures

Place Temperature

Stations

Nearby Weather Stations

Station Location Temp. Windchill Dew Point Humidity Wind Precip. Elev Updated Type
                   

Watches & Warnings

There are currently no watches in effect.